Weather History for Robinson, IL

Change the Weather History Date:

Friday, October 25, 2013

  Actual Average (KLWV) Record (KLWV)
Temperature  
Mean Temperature 40 °F 55 °F  
Max Temperature 52 °F 66 °F 80 °F (2012)
Min Temperature 27 °F 43 °F 27 °F (2013)
Degree Days  
Heating Degree Days 26 11  
Month to date heating degree days 187  
Since 1 July heating degree days 226  
Cooling Degree Days 0 0  
Month to date cooling degree days 31  
Year to date cooling degree days 1385  
Moisture  
Dew Point 28 °F    
Average Humidity 67    
Maximum Humidity 95    
Minimum Humidity 33    
Precipitation  
Precipitation 0.00 in 0.13 in 1.10 in (1986)
Month to date precipitation 3.40  
Year to date precipitation 35.94  
Sea Level Pressure  
Sea Level Pressure 30.41 in    
Wind  
Wind Speed 5 mph (WSW)    
Max Wind Speed 9 mph    
Max Gust Speed -    
Visibility 10 miles    
Events      
T = Trace of Precipitation, MM = Missing Value Source: NWS Daily Summary

Daily Weather History Graph

Daily Weather History Graph

Search for Another Location

Airport:

Trip Planner

Search our weather history database for the weather conditions in past years. The results will help you decide how hot, cold, wet, or windy it might be!

Date:

Astronomy

Oct. 25, 2013 Rise Set
Actual Time 7:10 AM CDT 5:57 PM CDT
Civil Twilight 6:43 AM CDT 6:25 PM CDT
Nautical Twilight 6:12 AM CDT 6:56 PM CDT
Astronomical Twilight 5:41 AM CDT 7:27 PM CDT
Moon 11:18 PM CDT (10/25) 12:50 PM CDT (10/25)
Length of Visible Light 11h 41m
Length of Day
10h 47m
Waning Gibbous, 62% of the Moon is Illuminated
Oct 25
Waning Gibbous
Oct 26
Last Quarter
Nov 3
New
Nov 9
First Quarter
Nov 17
Full

Hourly Weather History & Observations

Time (CDT) Temp. Windchill Dew Point Humidity Pressure Visibility Wind Dir Wind Speed Gust Speed Precip Events Conditions
12:15 AM 33.3 °F 27.9 °F 28.0 °F 81% 30.38 in 10.0 mi West 5.8 mph - N/A   Scattered Clouds
12:35 AM 32.9 °F 27.5 °F 28.4 °F 84% 30.39 in 10.0 mi West 5.8 mph - N/A   Clear
12:55 AM 31.1 °F 25.4 °F 27.9 °F 88% 30.39 in 10.0 mi West 5.8 mph - N/A   Clear
1:15 AM 31.1 °F 25.4 °F 27.7 °F 87% 30.40 in 10.0 mi West 5.8 mph - N/A   Clear
1:35 AM 30.7 °F 24.9 °F 27.7 °F 88% 30.40 in 10.0 mi West 5.8 mph - N/A   Clear
1:55 AM 30.2 °F 24.3 °F 27.3 °F 89% 30.40 in 10.0 mi West 5.8 mph - N/A   Clear
2:15 AM 28.8 °F 23.7 °F 27.0 °F 93% 30.41 in 10.0 mi West 4.6 mph - N/A   Clear
2:35 AM 29.3 °F 24.3 °F 27.3 °F 92% 30.41 in 10.0 mi WNW 4.6 mph - N/A   Clear
2:55 AM 30.2 °F 24.3 °F 27.3 °F 89% 30.42 in 10.0 mi WNW 5.8 mph - N/A   Clear
3:15 AM 31.1 °F 25.4 °F 27.9 °F 88% 30.42 in 10.0 mi WNW 5.8 mph - N/A   Clear
3:35 AM 31.3 °F 24.7 °F 27.7 °F 87% 30.42 in 10.0 mi WNW 6.9 mph - N/A   Clear
3:55 AM 31.5 °F 24.9 °F 28.0 °F 87% 30.43 in 10.0 mi WNW 6.9 mph - N/A   Clear
4:15 AM 31.1 °F 24.5 °F 27.7 °F 87% 30.43 in 10.0 mi WNW 6.9 mph - N/A   Clear
4:35 AM 30.7 °F 24.1 °F 27.5 °F 88% 30.44 in 10.0 mi WNW 6.9 mph - N/A   Clear
4:55 AM 30.7 °F 24.9 °F 27.5 °F 88% 30.44 in 10.0 mi WNW 5.8 mph - N/A   Clear
5:15 AM 30.7 °F 26.0 °F 27.5 °F 88% 30.45 in 10.0 mi WNW 4.6 mph - N/A   Clear
5:35 AM 30.6 °F 24.7 °F 27.3 °F 88% 30.46 in 10.0 mi WNW 5.8 mph - N/A   Clear
5:55 AM 29.8 °F 23.9 °F 27.1 °F 90% 30.47 in 10.0 mi WNW 5.8 mph - N/A   Clear
6:15 AM 29.3 °F 23.2 °F 26.6 °F 90% 30.47 in 10.0 mi WNW 5.8 mph - N/A   Clear
6:35 AM 29.3 °F 24.3 °F 26.6 °F 90% 30.47 in 10.0 mi WNW 4.6 mph - N/A   Clear
6:55 AM 28.9 °F 25.2 °F 26.2 °F 90% 30.48 in 10.0 mi WNW 3.5 mph - N/A   Clear
7:15 AM 27.7 °F - 26.2 °F 94% 30.48 in 10.0 mi Calm Calm - N/A   Clear
7:35 AM 27.5 °F - 25.9 °F 94% 30.49 in 10.0 mi Calm Calm - N/A   Clear
7:55 AM 28.8 °F - 27.5 °F 95% 30.49 in 10.0 mi Calm Calm - N/A   Clear
8:15 AM 32.0 °F - 29.8 °F 92% 30.50 in 10.0 mi Calm Calm - N/A   Clear
8:35 AM 33.4 °F 29.1 °F 29.7 °F 86% 30.50 in 10.0 mi West 4.6 mph - N/A   Clear
8:55 AM 34.7 °F 31.8 °F 29.7 °F 82% 30.51 in 10.0 mi WNW 3.5 mph - N/A   Clear
9:15 AM 37.0 °F 33.3 °F 30.7 °F 78% 30.51 in 10.0 mi WNW 4.6 mph - N/A   Clear
9:35 AM 39.6 °F 35.4 °F 30.9 °F 71% 30.51 in 10.0 mi NW 5.8 mph - N/A   Clear
9:55 AM 41.5 °F 37.8 °F 30.2 °F 64% 30.52 in 10.0 mi NW 5.8 mph - N/A   Clear
10:15 AM 43.3 °F 39.9 °F 31.3 °F 62% 30.52 in 10.0 mi WNW 5.8 mph - N/A   Clear
10:35 AM 44.6 °F 43.1 °F 30.4 °F 57% 30.51 in 10.0 mi NW 3.5 mph - N/A   Clear
10:55 AM 45.1 °F - 29.3 °F 54% 30.51 in 10.0 mi Calm Calm - N/A   Clear
11:15 AM 46.8 °F - 28.0 °F 48% 30.51 in 10.0 mi Calm Calm - N/A   Clear
11:35 AM 47.5 °F - 27.1 °F 45% 30.50 in 10.0 mi Calm Calm - N/A   Clear
11:55 AM 49.1 °F - 26.2 °F 41% 30.50 in 10.0 mi West 8.1 mph - N/A   Clear
12:15 PM 49.1 °F - 26.6 °F 42% 30.50 in 10.0 mi WSW 6.9 mph - N/A   Clear
12:35 PM 50.0 °F - 24.8 °F 37% 30.49 in 10.0 mi WSW 5.8 mph - N/A   Clear
12:55 PM 50.4 °F - 24.1 °F 36% 30.48 in 10.0 mi West 6.9 mph - N/A   Clear
1:15 PM 50.4 °F - 24.6 °F 37% 30.46 in 10.0 mi Calm Calm - N/A   Clear
1:35 PM 51.1 °F - 24.3 °F 35% 30.45 in 10.0 mi West 9.2 mph - N/A   Clear
1:55 PM 51.1 °F - 23.7 °F 34% 30.44 in 10.0 mi WNW 4.6 mph - N/A   Clear
2:15 PM 52.0 °F - 24.4 °F 34% 30.43 in 10.0 mi West 5.8 mph - N/A   Clear
2:35 PM 52.7 °F - 25.0 °F 34% 30.42 in 10.0 mi WSW 6.9 mph - N/A   Clear
2:55 PM 52.9 °F - 24.4 °F 33% 30.41 in 10.0 mi West 3.5 mph - N/A   Clear
3:15 PM 52.7 °F - 24.8 °F 34% 30.41 in 10.0 mi West 5.8 mph - N/A   Clear
3:35 PM 52.3 °F - 24.8 °F 34% 30.40 in 10.0 mi WNW 5.8 mph - N/A   Clear
3:55 PM 52.5 °F - 24.8 °F 34% 30.39 in 10.0 mi WNW 6.9 mph - N/A   Clear
4:15 PM 52.3 °F - 25.2 °F 35% 30.39 in 10.0 mi WSW 8.1 mph - N/A   Clear
4:35 PM 52.3 °F - 25.9 °F 36% 30.38 in 10.0 mi WSW 8.1 mph - N/A   Clear
4:55 PM 51.6 °F - 25.0 °F 36% 30.37 in 10.0 mi SW 8.1 mph - N/A   Clear
5:15 PM 50.5 °F - 25.2 °F 37% 30.37 in 10.0 mi SSW 6.9 mph - N/A   Clear
5:35 PM 49.1 °F - 25.7 °F 40% 30.36 in 10.0 mi SSW 4.6 mph - N/A   Clear
5:55 PM 46.8 °F - 26.6 °F 45% 30.35 in 10.0 mi SSW 5.8 mph - N/A   Clear
6:15 PM 43.3 °F 39.2 °F 27.5 °F 54% 30.35 in 10.0 mi SSW 6.9 mph - N/A   Clear
6:35 PM 42.1 °F 38.4 °F 28.0 °F 58% 30.35 in 10.0 mi South 5.8 mph - N/A   Clear
6:55 PM 40.8 °F 36.9 °F 28.4 °F 61% 30.35 in 10.0 mi South 5.8 mph - N/A   Clear
7:15 PM 39.4 °F 34.5 °F 28.9 °F 66% 30.35 in 10.0 mi SSW 6.9 mph - N/A   Clear
7:35 PM 38.8 °F 33.8 °F 29.3 °F 69% 30.34 in 10.0 mi SSW 6.9 mph - N/A   Clear
7:55 PM 38.7 °F 33.6 °F 29.3 °F 69% 30.34 in 10.0 mi SSW 6.9 mph - N/A   Clear
8:15 PM 38.8 °F 33.8 °F 29.3 °F 69% 30.33 in 10.0 mi SSW 6.9 mph - N/A   Clear
8:35 PM 38.7 °F 34.3 °F 29.3 °F 69% 30.33 in 10.0 mi SSW 5.8 mph - N/A   Clear
8:55 PM 37.6 °F 33.1 °F 29.5 °F 73% 30.33 in 10.0 mi South 5.8 mph - N/A   Clear
9:15 PM 38.5 °F 33.4 °F 29.8 °F 71% 30.33 in 10.0 mi South 6.9 mph - N/A   Clear
9:35 PM 37.9 °F 32.7 °F 29.8 °F 73% 30.32 in 10.0 mi South 6.9 mph - N/A   Clear
9:55 PM 37.6 °F 33.1 °F 29.5 °F 73% 30.31 in 10.0 mi South 5.8 mph - N/A   Clear
10:15 PM 37.4 °F 31.4 °F 29.5 °F 73% 30.31 in 10.0 mi South 8.1 mph - N/A   Clear
10:35 PM 37.6 °F 31.6 °F 29.3 °F 72% 30.30 in 10.0 mi SSW 8.1 mph - N/A   Clear
10:55 PM 37.4 °F 31.4 °F 29.3 °F 73% 30.30 in 10.0 mi SSW 8.1 mph - N/A   Clear
11:15 PM 37.0 °F 31.6 °F 29.3 °F 74% 30.29 in 10.0 mi SSW 6.9 mph - N/A   Clear
11:35 PM 36.5 °F 31.0 °F 29.7 °F 76% 30.28 in 10.0 mi SSW 6.9 mph - N/A   Clear
11:55 PM 36.5 °F 31.0 °F 29.7 °F 76% 30.27 in 10.0 mi SSW 6.9 mph - N/A   Clear